SL-12 R/B(2), 25927

Orbit data source: Space-Track

SL-12 R/B(2), 25927 is space debris in HEO originally from a launch on Sun, 26 Sep 1999 UTC launched from the Tyuratam Missile And Space Complex (TTMTR). Debris objects in space refer to the collection of defunct objects orbiting the Earth. Examples of debris include non-operational satellites, rocket bodies, and fragments generated from explosions, collisions, or faulty payload assembly.

Loading next visibility...
Identifier
25927, 1999-053D
Orbit
HEO
Country
Flag of CISCIS
Related business
Manufacturer
RKKE
Mission
Spacecraft
Bus & Motor
BLOK DM2, Unknown motor
Mass
2,560 kg wet, 2,560 kg dry
Launch date (UTC)
1999-09-26 (26 years ago)
Launch vehicle
Unknown
Launch site
Tyuratam Missile And Space Complex (TTMTR)
Object type
Payload
Rocket body
Debris
Shape & HBR
Cyl + 1 Nozzle, 3.1 m
Radar Cross Section
23.684 m², Large (>1 m²)

Expand to show TLE details & history
Last TLE update: 17 hours ago

TLE from 17 hours ago
0 SL-12 R/B(2)
1 25927U 99053D   25258.26763653 -.00000128  00000-0  00000-0 0  9993
2 25927  17.8025 343.2205 5327739 225.7050 125.8462  1.89349628179225
Epoch: 2025-09-15T06:25Z
TLE epoch observation values (Epoch: 2025-09-15T06:25:23.796Z)
Latitude
7.49238°
Longitude
-83.43923°
Altitude
33,111.487 km
Speed
2.397 km/s
True Right ascension
00h 29m 32s
True Declination
7° 29' 04"
Sunlit
Object was in daylight at epoch
Visualization orbit readout
Latitude
Unknown
Longitude
Unknown
Altitude
Unknown
Speed
Unknown
Apparent Right ascension
Unknown
Apparent Declination
Unknown
Sunlit
N/A
Visualization observer readout
Local Sidereal Time
16:01:25
Azimuth
Unknown
Elevation
Unknown
Doppler factor
Unknown
Orbital elements
Apogee altitude
35,928.275 km
Perigee altitude
6,517.868 km
Semi-major axis
27,601.208 km
Eccentricity
0.53277
Inclination
17.8025°
RAAN
343.2205°
Arg. of periapsis
225.705°
True anomaly
159.57231°
Mean anomaly
125.8462°
Eccentric anomaly
143.85234°
Mean motion
0.47332 °/min
Orbital period
760.59 mins
BSTAR
0
Loading maneuver chart data...
Computing Atmospheric mass density...
Loading historical data...
Loading historical data...
Loading historical data...
Loading historical data...
Loading historical data...
Loading historical data...
Loading historical data...
Other satellites on launch #53 in the year 1999 (1999-09-26 UTC)

Documentation

Showing up to 5 results
|